EA4TN Weather Reports


Display with metric or nautical units.
time (UTC)temp
F
wind
direction
speed
MPH
gust
MPH
rain 1hr
in
rain 24hr
in
rain mn
in
humidity
%
barometer
mb
20260903065516 70 46 5.0 9.0 0.00 0.00 0.00 55 1024.1
20260903064516 70 45 3.0 8.0 0.00 0.00 0.00 56 1024.2
20260903063517 69 46 4.0 8.0 0.00 0.00 0.00 56 1024.1
20260903062517 69 42 4.0 8.0 0.00 0.00 0.00 56 1023.9
20260903061516 69 46 4.0 9.0 0.00 0.00 0.00 56 1023.9
20260903060516 69 45 5.0 9.0 0.00 0.00 0.00 55 1023.7
20260903055516 69 45 4.0 9.0 0.00 0.00 0.00 55 1023.7
20260903054516 69 49 5.0 10.0 0.00 0.00 0.00 54 1023.6
20260903053516 69 48 5.0 8.0 0.00 0.00 0.00 53 1023.4
20260903052556 69 57 3.0 8.0 0.00 0.00 0.00 53 1023.4
20260903051517 69 50 5.0 9.0 0.00 0.00 0.00 52 1023.3
20260903050516 69 48 5.0 8.0 0.00 0.00 0.00 51 1023.1
20260903045517 70 48 4.0 7.0 0.00 0.00 0.00 50 1023.3
20260903044517 70 51 4.0 7.0 0.00 0.00 0.00 49 1023.4
20260903043517 71 47 3.0 9.0 0.00 0.00 0.00 49 1023.4
20260903042516 71 48 3.0 6.0 0.00 0.00 0.00 49 1023.3
20260903041516 71 46 3.0 7.0 0.00 0.00 0.00 48 1023.2
20260903040517 71 42 4.0 6.0 0.00 0.00 0.00 47 1023.2
20260903035516 71 50 2.0 4.0 0.00 0.00 0.00 46 1023.3
20260903034517 71 59 2.0 6.0 0.00 0.00 0.00 45 1023.1
20260903033516 72 56 3.0 6.0 0.00 0.00 0.00 45 1023.1
20260903032516 72 46 5.0 8.0 0.00 0.00 0.00 44 1023.0
20260903031517 72 42 4.0 7.0 0.00 0.00 0.00 43 1023.1
20260903030517 73 46 5.0 8.0 0.00 0.00 0.00 42 1023.1
20260903025516 72 45 6.0 9.0 0.00 0.00 0.00 43 1023.0
20260903024517 72 43 5.0 9.0 0.00 0.00 0.00 42 1023.1
20260903023516 72 50 3.0 7.0 0.00 0.00 0.00 42 1023.1
20260903022516 72 44 4.0 7.0 0.00 0.00 0.00 42 1023.0
20260903021516 73 66 2.0 6.0 0.00 0.00 0.00 41 1023.0
20260903020516 74 68 5.0 11.0 0.00 0.00 0.00 40 1023.1
20260903015517 74 60 5.0 8.0 0.00 0.00 0.00 39 1023.0
20260903014517 75 54 4.0 9.0 0.00 0.00 0.00 38 1023.0
20260903013516 75 53 5.0 11.0 0.00 0.00 0.00 37 1023.0
20260903012516 76 49 6.0 12.0 0.00 0.00 0.00 37 1023.0
20260903011557 76 48 7.0 15.0 0.00 0.00 0.00 36 1022.9
20260903010517 76 48 8.0 13.0 0.00 0.00 0.00 36 1022.9
20260903005516 76 49 8.0 14.0 0.00 0.00 0.00 36 1022.7
20260903004517 76 47 6.0 10.0 0.00 0.00 0.00 37 1022.5
20260903003557 76 48 6.0 9.0 0.00 0.00 0.00 38 1022.5
20260903002517 76 47 5.0 8.0 0.00 0.00 0.00 39 1022.5
20260903001517 76 47 3.0 7.0 0.00 0.00 0.00 40 1022.5
20260903000517 76 44 3.0 5.0 0.00 0.00 0.00 39 1022.5
20260902235516 77 44 3.0 5.0 0.00 0.00 0.00 39 1022.4
20260902234516 77 46 3.0 6.0 0.00 0.00 0.00 38 1022.4
20260902233516 77 45 3.0 5.0 0.00 0.00 0.00 38 1022.3
20260902232517 76 51 2.0 5.0 0.00 0.00 0.00 39 1022.4
20260902231556 76 43 4.0 7.0 0.00 0.00 0.00 39 1022.2
20260902230516 78 46 5.0 8.0 0.00 0.00 0.00 36 1022.3
20260902225516 78 267 1.0 2.0 0.00 0.00 0.00 36 1022.1
20260902224516 78 0.0 0.0 0.00 0.00 0.00 37 1021.8
20260902223516 78 0.0 0.0 0.00 0.00 0.00 36 1021.8
20260902222516 79 0.0 0.0 0.00 0.00 0.00 36 1021.8
20260902221556 79 0.0 0.0 0.00 0.00 0.00 35 1021.7
20260902220516 80 0.0 1.0 0.00 0.00 0.00 34 1021.7
20260902215516 80 267 1.0 1.0 0.00 0.00 0.00 33 1021.7
20260902214516 80 267 0.0 1.0 0.00 0.00 0.00 34 1021.5
20260902213516 80 267 1.0 1.0 0.00 0.00 0.00 34 1021.4
20260902212516 80 0.0 0.0 0.00 0.00 0.00 36 1021.4
20260902211517 81 0.0 0.0 0.00 0.00 0.00 35 1021.4
20260902210516 81 0.0 0.0 0.00 0.00 0.00 36 1021.4
20260902205516 81 0.0 0.0 0.00 0.00 0.00 35 1021.3
20260902204516 81 0.0 0.0 0.00 0.00 0.00 34 1021.0
20260902203556 82 0.0 0.0 0.00 0.00 0.00 34 1021.1
20260902202517 82 0.0 0.0 0.00 0.00 0.00 34 1021.0
20260902201516 82 0.0 0.0 0.00 0.00 0.00 33 1020.7
20260902200516 83 0.0 0.0 0.00 0.00 0.00 33 1020.8
20260902195516 84 0.0 0.0 0.00 0.00 0.00 32 1020.6
20260902194516 84 0.0 0.0 0.00 0.00 0.00 32 1020.3
20260902193516 85 0.0 0.0 0.00 0.00 0.00 31 1020.3
20260902192516 86 0.0 0.0 0.00 0.00 0.00 30 1020.2
20260902191556 87 0.0 0.0 0.00 0.00 0.00 30 1020.2
20260902190516 88 0.0 0.0 0.00 0.00 0.00 29 1020.1
20260902185516 90 267 0.0 1.0 0.00 0.00 0.00 27 1020.2
20260902184516 91 267 0.0 2.0 0.00 0.00 0.00 25 1020.1
20260902183516 93 267 0.0 2.0 0.00 0.00 0.00 24 1020.1
20260902182516 94 267 2.0 5.0 0.00 0.00 0.00 23 1020.2
20260902181516 94 268 2.0 4.0 0.00 0.00 0.00 22 1020.2
20260902180516 95 259 2.0 4.0 0.00 0.00 0.00 21 1020.2
20260902175556 95 279 2.0 5.0 0.00 0.00 0.00 22 1020.2
20260902174516 96 264 2.0 5.0 0.00 0.00 0.00 22 1020.3
20260902173516 97 267 1.0 3.0 0.00 0.00 0.00 21 1020.4
20260902172516 96 0.0 2.0 0.00 0.00 0.00 22 1020.2
20260902171516 96 287 2.0 5.0 0.00 0.00 0.00 22 1020.1
20260902170557 96 287 2.0 7.0 0.00 0.00 0.00 22 1020.2
20260902165517 96 285 3.0 6.0 0.00 0.00 0.00 22 1020.2
20260902164516 96 275 1.0 6.0 0.00 0.00 0.00 22 1020.4
20260902163516 97 264 2.0 6.0 0.00 0.00 0.00 22 1020.4
20260902162556 96 191 3.0 6.0 0.00 0.00 0.00 22 1020.5
20260902161556 96 278 3.0 8.0 0.00 0.00 0.00 22 1020.6
20260902160516 96 268 4.0 10.0 0.00 0.00 0.00 22 1020.6
20260902155516 96 244 4.0 9.0 0.00 0.00 0.00 22 1020.7
20260902154516 95 274 3.0 6.0 0.00 0.00 0.00 22 1020.7
20260902153516 95 348 3.0 8.0 0.00 0.00 0.00 23 1020.8
20260902152516 95 273 3.0 8.0 0.00 0.00 0.00 23 1020.8
20260902151517 95 316 2.0 7.0 0.00 0.00 0.00 23 1020.9
20260902150517 95 261 4.0 7.0 0.00 0.00 0.00 23 1021.0
20260902145516 94 267 4.0 8.0 0.00 0.00 0.00 23 1021.0
20260902144517 94 278 3.0 6.0 0.00 0.00 0.00 24 1021.1
20260902143516 95 276 4.0 8.0 0.00 0.00 0.00 24 1021.2
20260902142557 95 129 4.0 9.0 0.00 0.00 0.00 23 1021.2
20260902141516 94 266 2.0 7.0 0.00 0.00 0.00 24 1021.3
20260902140517 94 241 2.0 8.0 0.00 0.00 0.00 25 1021.5
20260902135517 94 278 3.0 6.0 0.00 0.00 0.00 25 1021.5
20260902134517 93 311 1.0 6.0 0.00 0.00 0.00 25 1021.5
20260902133516 94 308 4.0 6.0 0.00 0.00 0.00 24 1021.6
20260902132557 94 316 1.0 6.0 0.00 0.00 0.00 24 1021.7
20260902131517 93 264 3.0 7.0 0.00 0.00 0.00 25 1021.7
20260902130517 94 262 2.0 6.0 0.00 0.00 0.00 25 1021.9
20260902125557 93 218 1.0 5.0 0.00 0.00 0.00 25 1021.9
20260902124516 92 192 2.0 4.0 0.00 0.00 0.00 27 1022.2
20260902123516 93 264 2.0 4.0 0.00 0.00 0.00 28 1022.3
20260902122556 91 121 2.0 4.0 0.00 0.00 0.00 28 1022.2
20260902121517 90 112 4.0 7.0 0.00 0.00 0.00 29 1022.2
20260902120557 90 208 3.0 7.0 0.00 0.00 0.00 30 1022.3
20260902115516 89 266 1.0 5.0 0.00 0.00 0.00 26 1022.4
20260902114516 88 295 2.0 5.0 0.00 0.00 0.00 31 1022.6
20260902113516 88 294 2.0 6.0 0.00 0.00 0.00 32 1022.7
20260902112517 88 300 2.0 5.0 0.00 0.00 0.00 36 1022.8
20260902111516 88 245 1.0 3.0 0.00 0.00 0.00 39 1023.0
20260902110517 86 102 2.0 4.0 0.00 0.00 0.00 41 1023.0
20260902105557 85 277 1.0 5.0 0.00 0.00 0.00 43 1022.9
20260902104517 85 256 2.0 5.0 0.00 0.00 0.00 45 1023.1
20260902103517 84 282 2.0 4.0 0.00 0.00 0.00 47 1023.2
20260902102517 84 204 3.0 6.0 0.00 0.00 0.00 48 1023.2
20260902101517 83 261 1.0 4.0 0.00 0.00 0.00 51 1023.2
20260902100517 82 280 1.0 5.0 0.00 0.00 0.00 53 1023.1
20260902095557 81 254 1.0 5.0 0.00 0.00 0.00 55 1023.1
20260902094517 81 43 1.0 3.0 0.00 0.00 0.00 54 1023.3
20260902093517 81 211 2.0 4.0 0.00 0.00 0.00 54 1023.3
20260902092517 81 99 1.0 3.0 0.00 0.00 0.00 53 1023.2
20260902091516 79 123 1.0 3.0 0.00 0.00 0.00 55 1023.2
20260902090517 79 125 0.0 3.0 0.00 0.00 0.00 55 1023.1
20260902085517 77 69 1.0 3.0 0.00 0.00 0.00 57 1023.0
20260902084516 77 32 1.0 4.0 0.00 0.00 0.00 55 1023.1
20260902083517 76 61 1.0 3.0 0.00 0.00 0.00 57 1023.0
20260902082517 75 25 0.0 3.0 0.00 0.00 0.00 56 1022.9
20260902081517 75 70 1.0 3.0 0.00 0.00 0.00 55 1022.9
20260902080517 73 68 0.0 2.0 0.00 0.00 0.00 56 1022.8
20260902075516 72 0.0 3.0 0.00 0.00 0.00 56 1022.6
20260902074557 71 62 2.0 5.0 0.00 0.00 0.00 56 1022.3
20260902073517 70 70 3.0 5.0 0.00 0.00 0.00 58 1022.2
20260902072517 70 45 2.0 6.0 0.00 0.00 0.00 57 1022.2
20260902071517 69 45 3.0 5.0 0.00 0.00 0.00 54 1022.1
20260902070517 68 47 3.0 5.0 0.00 0.00 0.00 51 1022.2